Stations météo

Publicité
Angers, France (7230): Température de l'air & dewpoint: 14.09.2019 06:00:00 - 20.09.2019 06:00:00 (CEST)Angers, France (7230): Température de l'air 5cm: 14.09.2019 06:00:00 - 20.09.2019 06:00:00 (CEST)Angers, France (7230): Température de l'air -20cm: 14.09.2019 06:00:00 - 20.09.2019 06:00:00 (CEST)Angers, France (7230): Vitesse du vent & gusts: 14.09.2019 06:00:00 - 20.09.2019 06:00:00 (CEST)Angers, France (7230): Direction du vent: 14.09.2019 06:00:00 - 20.09.2019 06:00:00 (CEST)Angers, France (7230): reduced air pressure: 14.09.2019 06:00:00 - 20.09.2019 06:00:00 (CEST)Angers, France (7230): visibility: 14.09.2019 06:00:00 - 20.09.2019 06:00:00 (CEST)Angers, France (7230): Ensoleillement: 14.09.2019 06:00:00 - 20.09.2019 06:00:00 (CEST)Angers, France (7230): Quantités de précipitations: 14.09.2019 06:00:00 - 20.09.2019 06:00:00 (CEST)
Date & Time tt [°C] td [°C] tt 5cm [°C] tt -20cm [°C] ff [km/h] ff [knt] fx [km/h] fx [knt] dd ppp [hPa] vv [km] sd [min] rr [mm]
20.09.2019 06:00:00 10,6 1,9 9,5 18,0 9 5 23 12 ENE 1022,0 20 0 0,0
20.09.2019 05:00:00 11,1 1,9 9,8 18,2 15 8 24 13 NE 1022,4 20 0 0,0
20.09.2019 04:00:00 12,1 2,0 10,5 18,4 16 9 24 13 ENE 1022,8 20 0 0,0
20.09.2019 03:00:00 12,3 1,9 10,6 18,6 10 5 19 10 ENE 1023,4 20 0 0,0
20.09.2019 02:00:00 13,0 1,9 11,8 18,8 11 6 24 13 ENE 1023,7 20 0 0,0
20.09.2019 01:00:00 13,8 2,4 12,3 19,0 10 5 25 13 ENE 1024,1 20 0 0,0
20.09.2019 00:00:00 15,0 2,5 13,8 19,1 13 7 26 14 ENE 1024,4 20 0 0,0
19.09.2019 23:00:00 16,1 2,8 14,8 19,3 16 9 31 17 ENE 1024,6 20 0 0,0
19.09.2019 22:00:00 16,9 3,2 15,6 19,5 14 8 27 15 ENE 1024,4 20 0 0,0
19.09.2019 21:00:00 17,7 3,6 16,4 19,6 13 7 34 18 ENE 1024,0 20 0 0,0
19.09.2019 20:00:00 19,4 3,1 18,6 19,7 17 9 37 20 ENE 1023,5 20 44 0,0
19.09.2019 19:00:00 21,0 3,7 22,9 19,6 22 12 46 25 ENE 1023,4 20 60 0,0
19.09.2019 18:00:00 21,7 3,8 25,0 19,5 24 13 50 27 ENE 1023,4 20 60 0,0
19.09.2019 17:00:00 22,2 4,3 26,2 19,2 22 12 51 27 ENE 1023,6 20 60 0,0
19.09.2019 16:00:00 22,1 4,2 27,0 18,9 23 13 43 23 ENE 1024,1 20 60 0,0
19.09.2019 15:00:00 21,4 4,5 26,3 18,5 24 13 45 25 ENE 1024,8 20 60 0,0
19.09.2019 14:00:00 20,7 4,3 24,9 18,1 23 12 42 23 ENE 1025,4 20 60 0,0
19.09.2019 13:00:00 19,6 4,1 22,6 17,9 23 13 51 28 ENE 1025,8 20 60 0,0
19.09.2019 12:00:00 18,4 4,2 21,7 17,8 24 13 46 25 ENE 1026,2 20 60 0,0
19.09.2019 11:00:00 16,3 5,3 18,2 17,7 21 11 39 21 NE 1026,5 20 60 0,0
19.09.2019 10:00:00 14,2 5,5 15,3 17,8 19 11 38 21 NE 1026,1 20 60 0,0
19.09.2019 09:00:00 11,9 5,5 9,5 17,9 13 7 24 13 NE 1025,8 20 53 0,0
19.09.2019 08:00:00 10,3 5,1 9,1 18,1 9 5 20 11 NE 1025,5 20 0 0,0
19.09.2019 07:00:00 10,4 4,7 9,1 18,2 9 5 20 11 NE 1025,5 20 0 0,0
19.09.2019 06:00:00 10,7 4,6 9,5 18,4 11 6 21 12 NE 1025,3 20 0 0,0
19.09.2019 05:00:00 10,9 4,1 9,0 18,6 9 5 19 10 NE 1025,4 20 0 0,0
19.09.2019 04:00:00 11,1 4,1 8,9 18,8 6 4 16 9 NNE 1025,6 20 0 0,0
19.09.2019 03:00:00 12,2 3,7 10,8 19,0 10 5 20 11 NE 1025,6 20 0 0,0
19.09.2019 02:00:00 12,8 3,7 11,4 19,2 11 6 22 12 NE 1025,5 20 0 0,0
19.09.2019 01:00:00 13,5 3,3 12,1 19,4 10 6 25 14 NE 1025,4 20 0 0,0
19.09.2019 00:00:00 14,8 3,3 13,6 19,6 13 7 28 15 NE 1025,3 20 0 0,0
18.09.2019 23:00:00 15,5 3,0 14,3 19,8 13 7 24 13 NE 1024,9 20 0 0,0
18.09.2019 22:00:00 16,6 2,6 15,4 19,9 14 8 30 16 NE 1024,5 20 0 0,0
18.09.2019 21:00:00 17,9 2,6 16,6 20,1 16 9 32 17 NE 1023,7 20 0 0,0
18.09.2019 20:00:00 19,0 2,3 18,4 20,2 16 9 35 19 NE 1022,9 20 46 0,0
18.09.2019 19:00:00 20,6 1,4 23,2 20,2 22 12 45 25 NE 1022,6 20 60 0,0
18.09.2019 18:00:00 21,6 1,3 26,2 20,0 22 12 46 25 NNE 1022,4 20 60 0,0
18.09.2019 17:00:00 22,2 1,2 26,9 19,8 24 13 44 24 NE 1022,4 20 60 0,0
18.09.2019 16:00:00 21,5 2,2 26,7 19,5 24 13 45 24 NE 1023,1 20 60 0,0
18.09.2019 15:00:00 21,2 3,4 26,0 19,1 24 13 45 25 NE 1023,3 20 60 0,0
18.09.2019 14:00:00 20,6 5,8 24,7 18,8 20 11 45 24 NE 1023,3 20 60 0,0
18.09.2019 13:00:00 18,8 6,6 23,2 18,6 21 11 42 23 NE 1023,6 20 60 0,0
18.09.2019 12:00:00 17,7 7,4 21,0 18,5 20 11 35 19 NE 1023,7 20 60 0,0
18.09.2019 11:00:00 15,5 7,0 17,9 18,6 22 12 36 20 NE 1023,9 20 60 0,0
18.09.2019 10:00:00 13,4 6,7 14,8 18,6 19 11 32 17 NE 1023,7 20 60 0,0
18.09.2019 09:00:00 11,7 6,6 10,3 18,8 14 8 25 14 NE 1023,4 20 53 0,0
18.09.2019 08:00:00 10,8 6,7 10,1 19,0 14 8 24 13 NE 1022,9 20 0 0,0
18.09.2019 07:00:00 11,3 7,0 10,5 19,2 15 8 30 16 NE 1022,3 20 0 0,0
18.09.2019 06:00:00 11,8 7,7 11,0 19,4 15 8 25 14 NE 1022,4 20 0 0,0
18.09.2019 05:00:00 12,6 8,5 11,8 19,6 16 9 29 15 NNE 1022,4 20 0 0,0
18.09.2019 04:00:00 13,5 9,3 12,5 19,7 14 8 29 16 NE 1022,3 20 0 0,0
18.09.2019 03:00:00 14,1 9,9 13,3 19,9 15 8 25 14 NE 1022,2 20 0 0,0
18.09.2019 02:00:00 15,0 10,2 14,0 20,1 14 8 26 14 NE 1022,1 20 0 0,0
18.09.2019 01:00:00 15,5 10,0 14,7 20,2 14 8 29 16 NE 1022,0 20 0 0,0
18.09.2019 00:00:00 16,5 10,3 15,6 20,5 16 9 31 17 NNE 1021,8 20 0 0,0
17.09.2019 23:00:00 17,3 11,1 13,6 20,7 14 8 24 13 NNE 1021,4 20 0 0,0
17.09.2019 22:00:00 16,9 11,2 13,5 20,8 6 3 14 7 NNE 1021,0 20 0 0,0
17.09.2019 21:00:00 18,1 11,4 15,8 21,0 8 4 18 10 NE 1020,7 20 0 0,0
17.09.2019 20:00:00 20,7 12,1 20,1 21,0 11 6 31 17 NE 1020,3 20 30 0,0
17.09.2019 19:00:00 22,2 12,4 23,2 21,0 18 10 35 19 NE 1020,4 20 11 0,0
17.09.2019 18:00:00 22,8 13,3 23,9 20,9 20 11 32 17 NE 1020,3 20 5 0,0
17.09.2019 17:00:00 23,0 14,3 23,9 20,7 15 8 35 19 NE 1020,5 20 0 0,0
17.09.2019 16:00:00 22,7 13,7 24,2 20,4 20 11 34 18 NE 1020,7 20 31 0,0
17.09.2019 15:00:00 24,4 14,5 28,5 19,9 14 7 29 15 ENE 1020,8 20 56 0,0
17.09.2019 14:00:00 22,5 14,1 28,2 19,7 14 7 28 15 ENE 1021,3 20 60 0,0
17.09.2019 13:00:00 20,2 14,3 23,0 19,5 15 8 27 14 NE 1022,0 20 25 0,0
17.09.2019 12:00:00 18,4 13,9 19,9 19,4 10 6 24 13 ENE 1022,2 20 0 0,0
17.09.2019 11:00:00 17,4 14,1 17,4 19,4 8 5 24 13 NE 1022,4 20 0 0,0
17.09.2019 10:00:00 16,2 13,9 15,1 19,4 11 6 21 12 NNE 1022,4 20 0 0,0
17.09.2019 09:00:00 15,3 14,0 14,5 19,5 12 7 21 11 NE 1022,2 13 0 0,0
17.09.2019 08:00:00 14,6 14,0 14,1 19,6 9 5 18 10 NE 1021,7 10 0 0,0
17.09.2019 07:00:00 14,2 13,7 13,4 19,7 11 6 24 13 NNE 1021,2 7 0 0,0
17.09.2019 06:00:00 13,7 13,1 11,7 19,9 8 4 16 9 N 1021,0 7 0 0,0
17.09.2019 05:00:00 13,9 13,1 11,6 20,1 8 4 12 7 N 1021,3 8 0 0,2
17.09.2019 04:00:00 13,8 12,7 10,2 20,4 5 3 8 4 NNW 1021,4 6 0 0,0
17.09.2019 03:00:00 14,6 13,1 10,3 20,6 4 2 7 4 NNW 1021,6 8 0 0,0
17.09.2019 02:00:00 15,6 13,8 13,6 20,8 5 3 14 8 N 1021,3 15 0 0,0
17.09.2019 01:00:00 16,2 14,0 14,0 21,0 7 4 13 7 N 1021,4 19 0 0,0
17.09.2019 00:00:00 17,3 14,2 15,5 21,2 7 4 16 9 N 1021,5 20 0 0,0
16.09.2019 23:00:00 18,3 14,2 16,5 21,5 8 4 16 8 N 1021,2 20 0 0,0
16.09.2019 22:00:00 19,6 10,8 13,4 21,7 10 5 18 10 NNW 1020,9 20 0 0,0
16.09.2019 21:00:00 21,3 4,8 14,3 21,9 5 3 7 4 NNW 1020,4 20 0 0,0
16.09.2019 20:00:00 25,1 6,8 22,5 21,9 6 3 20 11 N 1019,8 20 50 0,0
16.09.2019 19:00:00 27,6 9,4 29,5 21,9 10 6 20 11 N 1019,5 20 60 0,0
16.09.2019 18:00:00 29,1 10,2 32,7 21,6 9 5 21 12 N 1019,5 20 60 0,0
16.09.2019 17:00:00 29,3 11,8 34,9 21,2 9 5 22 12 NNE 1019,9 20 60 0,0
16.09.2019 16:00:00 28,6 11,6 35,6 20,7 14 7 24 13 NNE 1020,2 20 60 0,0
16.09.2019 15:00:00 28,5 11,5 34,9 20,2 10 5 19 11 NW 1020,7 20 60 0,0
16.09.2019 14:00:00 27,6 11,6 33,8 19,8 6 3 18 10 NE 1021,3 20 60 0,0
16.09.2019 13:00:00 25,7 12,2 31,6 19,4 8 4 21 11 NNE 1021,8 20 60 0,0
16.09.2019 12:00:00 23,5 13,1 27,7 19,2 9 5 16 9 N 1022,1 20 60 0,0
16.09.2019 11:00:00 20,9 13,1 24,2 19,2 4 2 13 7 NE 1022,2 20 60 0,0
16.09.2019 10:00:00 18,1 13,0 18,9 19,2 5 3 10 5 NNE 1022,3 20 60 0,0
16.09.2019 09:00:00 15,1 13,5 10,6 19,4 6 3 12 7 N 1022,2 19 57 0,0
16.09.2019 08:00:00 12,8 11,5 8,7 19,6 2 1 5 3 N 1021,9 10 0 0,0
16.09.2019 07:00:00 13,3 12,0 9,6 19,8 3 2 6 3 NNW 1021,8 14 0 0,0
16.09.2019 06:00:00 14,2 12,4 10,7 20,0 3 1 8 5 NW 1021,5 20 0 0,0
16.09.2019 05:00:00 15,2 12,9 12,5 20,2 5 3 11 6 N 1021,9 20 0 0,0
16.09.2019 04:00:00 15,5 13,3 11,9 20,4 5 3 8 4 N 1021,8 20 0 0,0
16.09.2019 03:00:00 16,4 13,7 13,1 20,6 4 2 10 5 N 1022,3 20 0 0,0
16.09.2019 02:00:00 17,4 14,1 15,2 20,8 5 3 13 7 N 1022,4 20 0 0,0
16.09.2019 01:00:00 18,4 14,5 16,1 21,0 6 4 10 6 N 1022,5 20 0 0,0
16.09.2019 00:00:00 19,6 14,2 17,4 21,2 7 4 12 7 N 1022,6 20 0 0,0
15.09.2019 23:00:00 19,7 12,9 14,7 21,4 6 4 10 6 NNW 1022,4 20 0 0,0
15.09.2019 22:00:00 20,1 12,8 15,9 21,6 0 0 10 5 N 1022,1 20 0 0,0
15.09.2019 21:00:00 22,8 12,4 17,2 21,8 3 1 9 5 NNE 1021,6 20 0 0,0
15.09.2019 20:00:00 26,0 12,4 24,4 21,8 6 3 14 7 NE 1021,4 20 52 0,0
15.09.2019 19:00:00 28,4 12,3 32,2 21,7 9 5 16 8 NE 1021,3 20 60 0,0
15.09.2019 18:00:00 29,0 12,8 35,2 21,4 11 6 21 11 NE 1021,4 20 60 0,0
15.09.2019 17:00:00 29,6 12,1 36,6 21,0 9 5 23 12 N 1021,9 20 60 0,0
15.09.2019 16:00:00 29,2 13,0 35,5 20,5 10 6 20 11 NE 1022,6 20 60 0,0
15.09.2019 15:00:00 28,8 13,1 35,2 20,0 9 5 24 13 ENE 1023,0 20 60 0,0
15.09.2019 14:00:00 28,1 13,6 34,0 19,5 11 6 23 13 ENE 1023,7 20 60 0,0
15.09.2019 13:00:00 26,7 13,8 32,5 19,1 13 7 21 12 NE 1024,5 20 60 0,0
15.09.2019 12:00:00 24,9 14,7 29,1 18,9 7 4 14 8 N 1025,0 20 60 0,0
15.09.2019 11:00:00 22,2 13,3 25,3 18,8 6 3 11 6 E 1025,3 20 60 0,0
15.09.2019 10:00:00 19,1 13,1 19,6 18,8 6 3 11 6 ENE 1025,2 20 60 0,0
15.09.2019 09:00:00 15,5 13,5 10,6 19,0 5 3 10 5 NNE 1025,2 20 60 0,0
15.09.2019 08:00:00 13,0 11,9 9,2 19,2 3 2 5 3 N 1024,9 20 0 0,0
15.09.2019 07:00:00 13,5 12,4 9,5 19,4 3 1 5 3 N 1024,6 20 0 0,0
15.09.2019 06:00:00 13,8 12,5 10,0 19,6 4 2 5 3 N 1024,6 20 0 0,0
15.09.2019 05:00:00 14,3 12,8 10,4 19,8 2 1 4 2 N 1025,2 20 0 0,0
15.09.2019 04:00:00 14,6 13,0 10,7 20,0 3 2 6 3 NE 1025,1 20 0 0,0
15.09.2019 03:00:00 15,9 13,0 11,9 20,1 2 1 5 3 ESE 1025,2 20 0 0,0
15.09.2019 02:00:00 16,2 13,1 11,9 20,3 2 1 6 3 N 1025,7 20 0 0,0
15.09.2019 01:00:00 17,1 13,6 12,4 20,6 3 1 4 2 N 1025,7 20 0 0,0
15.09.2019 00:00:00 18,5 13,8 13,8 20,8 0 0 6 3 N 1025,9 20 0 0,0
14.09.2019 23:00:00 19,3 13,7 15,0 21,0 3 2 6 4 NNE 1026,1 20 0 0,0
14.09.2019 22:00:00 20,3 14,0 15,7 21,3 3 2 5 3 NNE 1026,0 20 0 0,0
14.09.2019 21:00:00 22,5 13,6 17,5 21,4 5 3 8 4 NE 1025,6 20 0 0,0
14.09.2019 20:00:00 26,0 13,8 25,8 21,4 5 3 17 9 ENE 1025,5 20 54 0,0
14.09.2019 19:00:00 27,6 14,2 30,4 21,3 10 5 19 11 NE 1025,4 20 60 0,0
14.09.2019 18:00:00 27,9 14,5 33,2 21,0 13 7 27 14 NE 1025,5 20 60 0,0
14.09.2019 17:00:00 27,8 15,1 33,5 20,7 13 7 29 16 NNE 1025,7 20 60 0,0
14.09.2019 16:00:00 27,7 15,4 33,8 20,2 13 7 24 13 NNE 1026,4 20 60 0,0
14.09.2019 15:00:00 26,8 15,5 31,4 19,8 11 6 25 13 ENE 1026,9 20 60 0,0
14.09.2019 14:00:00 26,1 15,5 31,5 19,3 12 7 26 14 NE 1027,5 20 60 0,0
14.09.2019 13:00:00 24,4 15,1 28,9 19,0 10 5 28 15 ENE 1028,2 20 60 0,0
14.09.2019 12:00:00 22,9 15,2 26,4 18,9 13 7 27 15 E 1028,5 20 60 0,0
14.09.2019 11:00:00 20,6 14,9 23,6 18,8 16 9 26 14 ENE 1029,1 20 60 0,0
14.09.2019 10:00:00 18,5 14,8 19,3 18,8 12 7 27 14 ENE 1029,5 20 60 0,0
14.09.2019 09:00:00 16,2 14,6 14,6 18,9 11 6 22 12 NE 1029,7 20 60 0,0
14.09.2019 08:00:00 14,8 13,8 14,0 19,0 9 5 14 8 NNE 1029,8 20 0 0,0
14.09.2019 07:00:00 15,1 13,6 14,1 19,2 8 4 17 9 ENE 1029,5 20 0 0,0
14.09.2019 06:00:00 15,4 13,6 14,5 19,3 9 5 18 10 NNE 1029,4 20 0 0,0

tt = Température de l'air
td = dewpoint
tt 5cm = Température de l'air 5cm
tt -20cm = Température de l'air -20cm
ff = Vitesse du vent
fx = gusts
dd = Direction du vent
ppp = reduced air pressure
vv = visibility
sd = Ensoleillement
rr = Quantités de précipitations

stations d'obs. à proximité